Location: Guayaquil
(2.1667°S, 79.9000°W)
Time: 02:56:27
(UTC-05:00)

Envisat - Visible Passes

Search period start: 25 November 2017 00:00
Search period end: 05 December 2017 00:00
Orbit: 764 x 766 km, 98.2° (Epoch: 24 November)

Date Brightness Start Highest point End Pass type
(mag) Time Alt. Az. Time Alt. Az. Time Alt. Az.
26 Nov 5.4 20:47:33 10° S 20:48:30 15° S 20:48:30 15° S visible
27 Nov 5.2 20:10:55 10° SSE 20:11:27 13° SSE 20:11:27 13° SSE visible
28 Nov 5.7 21:13:53 10° SSW 21:14:38 13° SSW 21:14:38 13° SSW visible
29 Nov 5.1 20:36:20 10° S 20:37:35 18° S 20:37:35 18° S visible
30 Nov 5.2 20:00:04 10° SSE 20:00:33 13° SE 20:00:33 13° SE visible
01 Dec 5.4 21:02:22 10° SSW 21:03:43 17° SSW 21:03:43 17° SSW visible
02 Dec 4.9 20:25:13 10° SSE 20:26:40 19° SSE 20:26:40 19° SSE visible
03 Dec 5.2 19:49:20 10° SE 19:49:38 11° SE 19:49:38 11° SE visible
03 Dec 5.9 21:29:19 10° SW 21:29:50 12° SW 21:29:50 12° SW visible
04 Dec 5.0 20:50:59 10° S 20:52:47 21° SSW 20:52:47 21° SSW visible
